owner,sensor,date,latitude,longitude,vertical_datum,direction_of_sea_water_velocity,sea_water_speed,upward_sea_water_velocity,qcFlag 
TABS,ioos:station:wmo:42050:1,1999-04-01T00:00:00Z,28.8425,-94.2433,2.0,233.5940031,14.81048615,-99999.0,'11111222,11111222,99999999' 
TABS,ioos:station:wmo:42050:1,1999-04-01T00:30:00Z,28.8425,-94.2433,2.0,230.4015831,14.4964306,-99999.0,'11111222,11111222,99999999' 
TABS,ioos:station:wmo:42050:1,1999-04-01T01:00:00Z,28.8425,-94.2433,2.0,242.5187519,12.59067115,-99999.0,'11111222,11111222,99999999' 
TABS,ioos:station:wmo:42050:1,1999-04-01T01:30:00Z,28.8425,-94.2433,2.0,249.211382,9.241644875,-99999.0,'11133222,11111222,99999999' 
TABS,ioos:station:wmo:42050:1,1999-04-01T02:00:00Z,28.8425,-94.2433,2.0,241.574995,10.33607759,-99999.0,'11111222,11111222,99999999' 
TABS,ioos:station:wmo:42050:1,1999-04-01T02:30:00Z,28.8425,-94.2433,2.0,250.7038687,9.472090582,-99999.0,'11133222,11111222,99999999' 
TABS,ioos:station:wmo:42050:1,1999-04-01T03:00:00Z,28.8425,-94.2433,2.0,253.82517,9.620810777,-99999.0,'11133222,11111222,99999999' 
TABS,ioos:station:wmo:42050:1,1999-04-01T03:30:00Z,28.8425,-94.2433,2.0,273.0344535,8.501917431,-99999.0,'11133222,11111222,99999999' 
TABS,ioos:station:wmo:42050:1,1999-04-01T04:00:00Z,28.8425,-94.2433,2.0,281.3103269,7.597539075,-99999.0,'11133222,11111222,99999999' 
TABS,ioos:station:wmo:42050:1,1999-04-01T04:30:00Z,28.8425,-94.2433,2.0,294.0918295,7.667913667,-99999.0,'11133222,11111222,99999999' 
TABS,ioos:station:wmo:42050:1,1999-04-01T05:00:00Z,28.8425,-94.2433,2.0,295.6760648,8.931931482,-99999.0,'11133222,11111222,99999999' 
TABS,ioos:station:wmo:42050:1,1999-04-01T05:30:00Z,28.8425,-94.2433,2.0,308.6184616,8.587997438,-99999.0,'11133222,11111222,99999999' 
TABS,ioos:station:wmo:42050:1,1999-04-01T06:00:00Z,28.8425,-94.2433,2.0,305.4119374,9.509079871,-99999.0,'11133222,11111222,99999999' 
TABS,ioos:station:wmo:42050:1,1999-04-01T06:30:00Z,28.8425,-94.2433,2.0,298.425005,10.33607759,-99999.0,'11111222,11111222,99999999' 
TABS,ioos:station:wmo:42050:1,1999-04-01T07:00:00Z,28.8425,-94.2433,2.0,301.4806817,8.559842288,-99999.0,'11133222,11111222,99999999' 
TABS,ioos:station:wmo:42050:1,1999-04-01T07:30:00Z,28.8425,-94.2433,2.0,302.2036299,9.513537723,-99999.0,'11133222,11111222,99999999' 
TABS,ioos:station:wmo:42050:1,1999-04-01T08:00:00Z,28.8425,-94.2433,2.0,290.5695804,10.18960254,-99999.0,'11111222,11111222,99999999' 
TABS,ioos:station:wmo:42050:1,1999-04-01T08:30:00Z,28.8425,-94.2433,2.0,272.4359133,10.58956562,-99999.0,'11111222,11111222,99999999' 
TABS,ioos:station:wmo:42050:1,1999-04-01T09:00:00Z,28.8425,-94.2433,2.0,263.0728556,11.11109806,-99999.0,'11111222,11111222,99999999' 
TABS,ioos:station:wmo:42050:1,1999-04-01T09:30:00Z,28.8425,-94.2433,2.0,246.7044447,11.68234993,-99999.0,'11111222,11111222,99999999' 
TABS,ioos:station:wmo:42050:1,1999-04-01T10:00:00Z,28.8425,-94.2433,2.0,240.9495769,12.27413948,-99999.0,'11111222,11111222,99999999' 
TABS,ioos:station:wmo:42050:1,1999-04-01T10:30:00Z,28.8425,-94.2433,2.0,236.8801711,12.8114363,-99999.0,'11111222,11111222,99999999' 
TABS,ioos:station:wmo:42050:1,1999-04-01T11:00:00Z,28.8425,-94.2433,2.0,232.2898007,15.82570062,-99999.0,'11111222,11111222,99999999' 
TABS,ioos:station:wmo:42050:1,1999-04-01T11:30:00Z,28.8425,-94.2433,2.0,235.5923563,16.61734636,-99999.0,'11111222,11111222,99999999' 
TABS,ioos:station:wmo:42050:1,1999-04-01T12:00:00Z,28.8425,-94.2433,2.0,236.833098,18.51666547,-99999.0,'11111222,11111222,99999999' 
TABS,ioos:station:wmo:42050:1,1999-04-01T12:30:00Z,28.8425,-94.2433,2.0,237.5782681,20.29313431,-99999.0,'11111222,11111222,99999999' 
TABS,ioos:station:wmo:42050:1,1999-04-01T13:00:00Z,28.8425,-94.2433,2.0,241.3063393,19.86998993,-99999.0,'11111222,11111222,99999999' 
TABS,ioos:station:wmo:42050:1,1999-04-01T13:30:00Z,28.8425,-94.2433,2.0,243.2409309,18.52369294,-99999.0,'11111222,11111222,99999999' 
TABS,ioos:station:wmo:42050:1,1999-04-01T14:00:00Z,28.8425,-94.2433,2.0,249.108586,18.81702686,-99999.0,'11111222,11111222,99999999' 
TABS,ioos:station:wmo:42050:1,1999-04-01T14:30:00Z,28.8425,-94.2433,2.0,253.3820066,20.84040547,-99999.0,'11111222,11111222,99999999' 
TABS,ioos:station:wmo:42050:1,1999-04-01T15:00:00Z,28.8425,-94.2433,2.0,260.5931814,21.90453149,-99999.0,'11111222,11111222,99999999' 
TABS,ioos:station:wmo:42050:1,1999-04-01T15:30:00Z,28.8425,-94.2433,2.0,261.7013642,21.68705835,-99999.0,'11111222,11111222,99999999' 
TABS,ioos:station:wmo:42050:1,1999-04-01T16:00:00Z,28.8425,-94.2433,2.0,266.1824189,24.63465039,-99999.0,'11111222,11111222,99999999' 
TABS,ioos:station:wmo:42050:1,1999-04-01T16:30:00Z,28.8425,-94.2433,2.0,268.7591599,27.71649509,-99999.0,'11111222,11111222,99999999' 
TABS,ioos:station:wmo:42050:1,1999-04-01T17:00:00Z,28.8425,-94.2433,2.0,273.1036592,30.29442358,-99999.0,'11111222,11111222,99999999' 
TABS,ioos:station:wmo:42050:1,1999-04-01T17:30:00Z,28.8425,-94.2433,2.0,272.5243189,30.42951856,-99999.0,'11111222,11111222,99999999' 
TABS,ioos:station:wmo:42050:1,1999-04-01T18:00:00Z,28.8425,-94.2433,2.0,270.8015819,32.18314621,-99999.0,'11111222,11111222,99999999' 
TABS,ioos:station:wmo:42050:1,1999-04-01T18:30:00Z,28.8425,-94.2433,2.0,271.8860163,31.60711471,-99999.0,'11111222,11111222,99999999' 
TABS,ioos:station:wmo:42050:1,1999-04-01T19:00:00Z,28.8425,-94.2433,2.0,274.8850544,34.99710417,-99999.0,'11111222,11111222,99999999' 
TABS,ioos:station:wmo:42050:1,1999-04-01T19:30:00Z,28.8425,-94.2433,2.0,272.7766276,33.85974011,-99999.0,'11111222,11111222,99999999' 
TABS,ioos:station:wmo:42050:1,1999-04-01T20:00:00Z,28.8425,-94.2433,2.0,268.2985521,35.0354392,-99999.0,'11111222,11111222,99999999' 
TABS,ioos:station:wmo:42050:1,1999-04-01T20:30:00Z,28.8425,-94.2433,2.0,271.9224686,39.95247802,-99999.0,'11111222,11111222,99999999' 
TABS,ioos:station:wmo:42050:1,1999-04-01T21:00:00Z,28.8425,-94.2433,2.0,264.3418801,37.7338164,-99999.0,'11111222,11111222,99999999' 
TABS,ioos:station:wmo:42050:1,1999-04-01T21:30:00Z,28.8425,-94.2433,2.0,263.1680996,36.31784685,-99999.0,'11111222,11111222,99999999' 
TABS,ioos:station:wmo:42050:1,1999-04-01T22:00:00Z,28.8425,-94.2433,2.0,257.2248981,34.37077829,-99999.0,'11111222,11111222,99999999' 
TABS,ioos:station:wmo:42050:1,1999-04-01T22:30:00Z,28.8425,-94.2433,2.0,260.0702476,36.30379044,-99999.0,'11111222,11111222,99999999' 
TABS,ioos:station:wmo:42050:1,1999-04-01T23:00:00Z,28.8425,-94.2433,2.0,260.537279,36.25326468,-99999.0,'11111222,11111222,99999999' 
TABS,ioos:station:wmo:42050:1,1999-04-01T23:30:00Z,28.8425,-94.2433,2.0,253.8738646,32.72769011,-99999.0,'11111222,11111222,99999999' 
TABS,ioos:station:wmo:42050:1,1999-04-02T00:00:00Z,28.8425,-94.2433,2.0,243.2027546,32.05206078,-99999.0,'11111222,11111222,99999999' 
TABS,ioos:station:wmo:42050:1,1999-04-02T00:30:00Z,28.8425,-94.2433,2.0,246.5755584,30.36222159,-99999.0,'11111222,11111222,99999999' 
TABS,ioos:station:wmo:42050:1,1999-04-02T01:00:00Z,28.8425,-94.2433,2.0,250.1973449,31.67290482,-99999.0,'11111222,11111222,99999999' 
TABS,ioos:station:wmo:42050:1,1999-04-02T01:30:00Z,28.8425,-94.2433,2.0,249.4148036,32.62288307,-99999.0,'11111222,11111222,99999999' 
TABS,ioos:station:wmo:42050:1,1999-04-02T02:00:00Z,28.8425,-94.2433,2.0,257.3707308,27.94610885,-99999.0,'11111222,11111222,99999999' 
TABS,ioos:station:wmo:42050:1,1999-04-02T02:30:00Z,28.8425,-94.2433,2.0,255.3846938,28.33688233,-99999.0,'11111222,11111222,99999999' 
TABS,ioos:station:wmo:42050:1,1999-04-02T03:00:00Z,28.8425,-94.2433,2.0,264.5805506,26.78973311,-99999.0,'11111222,11111222,99999999' 
TABS,ioos:station:wmo:42050:1,1999-04-02T03:30:00Z,28.8425,-94.2433,2.0,268.9447457,24.44414245,-99999.0,'11111222,11111222,99999999' 
TABS,ioos:station:wmo:42050:1,1999-04-02T04:00:00Z,28.8425,-94.2433,2.0,270.0004209,23.09,-99999.0,'11111222,11111222,99999999' 
TABS,ioos:station:wmo:42050:1,1999-04-02T04:30:00Z,28.8425,-94.2433,2.0,286.8571634,20.55311412,-99999.0,'11111222,11111222,99999999' 
TABS,ioos:station:wmo:42050:1,1999-04-02T05:00:00Z,28.8425,-94.2433,2.0,277.6034423,27.0578787,-99999.0,'11111222,11111222,99999999' 
TABS,ioos:station:wmo:42050:1,1999-04-02T05:30:00Z,28.8425,-94.2433,2.0,277.2512127,25.98782022,-99999.0,'11111222,11111222,99999999' 
TABS,ioos:station:wmo:42050:1,1999-04-02T06:00:00Z,28.8425,-94.2433,2.0,290.7183536,24.84676438,-99999.0,'11111222,11111222,99999999' 
TABS,ioos:station:wmo:42050:1,1999-04-02T06:30:00Z,28.8425,-94.2433,2.0,282.0754856,28.4903703,-99999.0,'11111222,11111222,99999999' 
TABS,ioos:station:wmo:42050:1,1999-04-02T07:00:00Z,28.8425,-94.2433,2.0,286.6700433,25.97146319,-99999.0,'11111222,11111222,99999999' 
TABS,ioos:station:wmo:42050:1,1999-04-02T07:30:00Z,28.8425,-94.2433,2.0,289.2207583,24.45302844,-99999.0,'11111222,11111222,99999999' 
TABS,ioos:station:wmo:42050:1,1999-04-02T08:00:00Z,28.8425,-94.2433,2.0,285.0072877,25.91379941,-99999.0,'11111222,11111222,99999999' 
TABS,ioos:station:wmo:42050:1,1999-04-02T08:30:00Z,28.8425,-94.2433,2.0,290.1827874,23.3326488,-99999.0,'11111222,11111222,99999999' 
TABS,ioos:station:wmo:42050:1,1999-04-02T09:00:00Z,28.8425,-94.2433,2.0,279.0410115,22.78302877,-99999.0,'11111222,11111222,99999999' 
TABS,ioos:station:wmo:42050:1,1999-04-02T09:30:00Z,28.8425,-94.2433,2.0,287.4116219,23.89482161,-99999.0,'11111222,11111222,99999999' 
TABS,ioos:station:wmo:42050:1,1999-04-02T10:00:00Z,28.8425,-94.2433,2.0,278.2418299,21.83549862,-99999.0,'11111222,11111222,99999999' 
TABS,ioos:station:wmo:42050:1,1999-04-02T10:30:00Z,28.8425,-94.2433,2.0,279.1441484,21.58427668,-99999.0,'11111222,11111222,99999999' 
TABS,ioos:station:wmo:42050:1,1999-04-02T11:00:00Z,28.8425,-94.2433,2.0,270.0004209,26.52,-99999.0,'11111222,11111222,99999999' 
TABS,ioos:station:wmo:42050:1,1999-04-02T11:30:00Z,28.8425,-94.2433,2.0,263.9037318,23.82471406,-99999.0,'11111222,11111222,99999999' 
TABS,ioos:station:wmo:42050:1,1999-04-02T12:00:00Z,28.8425,-94.2433,2.0,254.6754195,22.55180924,-99999.0,'11111222,11111222,99999999' 
TABS,ioos:station:wmo:42050:1,1999-04-02T12:30:00Z,28.8425,-94.2433,2.0,246.749484,21.88747816,-99999.0,'11111222,11111222,99999999' 
TABS,ioos:station:wmo:42050:1,1999-04-02T13:00:00Z,28.8425,-94.2433,2.0,247.7476912,24.7966651,-99999.0,'11111222,11111222,99999999' 
TABS,ioos:station:wmo:42050:1,1999-04-02T13:30:00Z,28.8425,-94.2433,2.0,245.0821409,23.33183448,-99999.0,'11111222,11111222,99999999' 
TABS,ioos:station:wmo:42050:1,1999-04-02T14:00:00Z,28.8425,-94.2433,2.0,242.3007055,23.72932785,-99999.0,'11111222,11111222,99999999' 
TABS,ioos:station:wmo:42050:1,1999-04-02T14:30:00Z,28.8425,-94.2433,2.0,239.3427354,23.37730737,-99999.0,'11111222,11111222,99999999' 
TABS,ioos:station:wmo:42050:1,1999-04-02T15:00:00Z,28.8425,-94.2433,2.0,235.3064289,18.85160205,-99999.0,'11111222,11111222,99999999' 
TABS,ioos:station:wmo:42050:1,1999-04-02T15:30:00Z,28.8425,-94.2433,2.0,246.4073742,14.14203663,-99999.0,'11111222,11111222,99999999' 
TABS,ioos:station:wmo:42050:1,1999-04-02T16:00:00Z,28.8425,-94.2433,2.0,246.7397067,19.6250707,-99999.0,'11111222,11111222,99999999' 
TABS,ioos:station:wmo:42050:1,1999-04-02T16:30:00Z,28.8425,-94.2433,2.0,245.6950867,17.00735135,-99999.0,'11111222,11111222,99999999' 
TABS,ioos:station:wmo:42050:1,1999-04-02T17:00:00Z,28.8425,-94.2433,2.0,250.4301454,16.450231,-99999.0,'11111222,11111222,99999999' 
TABS,ioos:station:wmo:42050:1,1999-04-02T17:30:00Z,28.8425,-94.2433,2.0,249.7983122,16.82498737,-99999.0,'11111222,11111222,99999999' 
TABS,ioos:station:wmo:42050:1,1999-04-02T18:00:00Z,28.8425,-94.2433,2.0,241.345332,14.59781148,-99999.0,'11111222,11111222,99999999' 
TABS,ioos:station:wmo:42050:1,1999-04-02T18:30:00Z,28.8425,-94.2433,2.0,236.5358157,10.53661236,-99999.0,'11111222,11111222,99999999' 
TABS,ioos:station:wmo:42050:1,1999-04-02T19:00:00Z,28.8425,-94.2433,2.0,250.8786263,11.35655317,-99999.0,'11111222,11111222,99999999' 
TABS,ioos:station:wmo:42050:1,1999-04-02T19:30:00Z,28.8425,-94.2433,2.0,260.0547024,12.1018387,-99999.0,'11111222,11111222,99999999' 
TABS,ioos:station:wmo:42050:1,1999-04-02T20:00:00Z,28.8425,-94.2433,2.0,256.6464297,14.85151171,-99999.0,'11111222,11111222,99999999' 
TABS,ioos:station:wmo:42050:1,1999-04-02T20:30:00Z,28.8425,-94.2433,2.0,251.5646734,14.13538114,-99999.0,'11111222,11111222,99999999' 
TABS,ioos:station:wmo:42050:1,1999-04-02T21:00:00Z,28.8425,-94.2433,2.0,244.2366402,14.05730059,-99999.0,'11111222,11111222,99999999' 
TABS,ioos:station:wmo:42050:1,1999-04-02T21:30:00Z,28.8425,-94.2433,2.0,240.2502172,15.61845383,-99999.0,'11111222,11111222,99999999' 
TABS,ioos:station:wmo:42050:1,1999-04-02T22:00:00Z,28.8425,-94.2433,2.0,236.1816781,17.392668,-99999.0,'11111222,11111222,99999999' 
TABS,ioos:station:wmo:42050:1,1999-04-02T22:30:00Z,28.8425,-94.2433,2.0,235.3684734,17.5614037,-99999.0,'11111222,11111222,99999999' 
TABS,ioos:station:wmo:42050:1,1999-04-02T23:00:00Z,28.8425,-94.2433,2.0,237.5284627,19.42722317,-99999.0,'11111222,11111222,99999999' 
TABS,ioos:station:wmo:42050:1,1999-04-02T23:30:00Z,28.8425,-94.2433,2.0,239.6824581,20.36503867,-99999.0,'11111222,11111222,99999999' 
TABS,ioos:station:wmo:42050:1,1999-04-03T00:00:00Z,28.8425,-94.2433,2.0,250.7267083,15.78461593,-99999.0,'11111222,11111222,99999999' 
TABS,ioos:station:wmo:42050:1,1999-04-03T00:30:00Z,28.8425,-94.2433,2.0,247.997583,15.90861716,-99999.0,'11111222,11111222,99999999' 
TABS,ioos:station:wmo:42050:1,1999-04-03T01:00:00Z,28.8425,-94.2433,2.0,254.364501,15.4725208,-99999.0,'11111222,11111222,99999999' 
TABS,ioos:station:wmo:42050:1,1999-04-03T01:30:00Z,28.8425,-94.2433,2.0,248.1861672,17.65405619,-99999.0,'11111222,11111222,99999999' 
TABS,ioos:station:wmo:42050:1,1999-04-03T02:00:00Z,28.8425,-94.2433,2.0,251.1086395,17.48162464,-99999.0,'11111222,11111222,99999999' 
TABS,ioos:station:wmo:42050:1,1999-04-03T02:30:00Z,28.8425,-94.2433,2.0,245.8996194,18.61236417,-99999.0,'11111222,11111222,99999999' 
TABS,ioos:station:wmo:42050:1,1999-04-03T03:00:00Z,28.8425,-94.2433,2.0,252.6788728,19.51494299,-99999.0,'11111222,11111222,99999999' 
TABS,ioos:station:wmo:42050:1,1999-04-03T03:30:00Z,28.8425,-94.2433,2.0,249.4722584,23.38482414,-99999.0,'11111222,11111222,99999999' 
TABS,ioos:station:wmo:42050:1,1999-04-03T04:00:00Z,28.8425,-94.2433,2.0,258.7767154,20.65497519,-99999.0,'11111222,11111222,99999999' 
TABS,ioos:station:wmo:42050:1,1999-04-03T04:30:00Z,28.8425,-94.2433,2.0,262.5189891,20.58520099,-99999.0,'11111222,11111222,99999999' 
TABS,ioos:station:wmo:42050:1,1999-04-03T05:00:00Z,28.8425,-94.2433,2.0,267.414466,16.4066968,-99999.0,'11111222,11111222,99999999' 
TABS,ioos:station:wmo:42050:1,1999-04-03T05:30:00Z,28.8425,-94.2433,2.0,264.5520573,18.85515845,-99999.0,'11111222,11111222,99999999' 
TABS,ioos:station:wmo:42050:1,1999-04-03T06:00:00Z,28.8425,-94.2433,2.0,276.4199063,19.94505703,-99999.0,'11111222,11111222,99999999' 
TABS,ioos:station:wmo:42050:1,1999-04-03T06:30:00Z,28.8425,-94.2433,2.0,270.6204795,13.86081166,-99999.0,'11111222,11111222,99999999' 
TABS,ioos:station:wmo:42050:1,1999-04-03T07:00:00Z,28.8425,-94.2433,2.0,298.1347611,9.79765278,-99999.0,'11133222,11111222,99999999' 
TABS,ioos:station:wmo:42050:1,1999-04-03T07:30:00Z,28.8425,-94.2433,2.0,283.1959223,12.39733036,-99999.0,'11111222,11111222,99999999' 
TABS,ioos:station:wmo:42050:1,1999-04-03T08:00:00Z,28.8425,-94.2433,2.0,279.6416865,14.21071779,-99999.0,'11111222,11111222,99999999' 
TABS,ioos:station:wmo:42050:1,1999-04-03T08:30:00Z,28.8425,-94.2433,2.0,282.0688862,10.66573017,-99999.0,'11111222,11111222,99999999' 
TABS,ioos:station:wmo:42050:1,1999-04-03T09:00:00Z,28.8425,-94.2433,2.0,267.1180021,8.951318339,-99999.0,'11133222,11111222,99999999' 
TABS,ioos:station:wmo:42050:1,1999-04-03T09:30:00Z,28.8425,-94.2433,2.0,268.5932582,6.111840967,-99999.0,'11133222,11111222,99999999' 
TABS,ioos:station:wmo:42050:1,1999-04-03T10:00:00Z,28.8425,-94.2433,2.0,289.1154313,7.72598861,-99999.0,'11133222,11111222,99999999' 
TABS,ioos:station:wmo:42050:1,1999-04-03T10:30:00Z,28.8425,-94.2433,2.0,270.0004209,6.71,-99999.0,'11133222,11111222,99999999' 
TABS,ioos:station:wmo:42050:1,1999-04-03T11:00:00Z,28.8425,-94.2433,2.0,278.409313,8.137481183,-99999.0,'11133222,11111222,99999999' 
TABS,ioos:station:wmo:42050:1,1999-04-03T11:30:00Z,28.8425,-94.2433,2.0,261.8780384,9.485130468,-99999.0,'11133222,11111222,99999999' 
TABS,ioos:station:wmo:42050:1,1999-04-03T12:00:00Z,28.8425,-94.2433,2.0,259.206895,9.559089915,-99999.0,'11133222,11111222,99999999' 
TABS,ioos:station:wmo:42050:1,1999-04-03T12:30:00Z,28.8425,-94.2433,2.0,252.7254887,11.55100861,-99999.0,'11111222,11111222,99999999' 
TABS,ioos:station:wmo:42050:1,1999-04-03T13:00:00Z,28.8425,-94.2433,2.0,251.579467,12.24750179,-99999.0,'11111222,11111222,99999999' 
TABS,ioos:station:wmo:42050:1,1999-04-03T13:30:00Z,28.8425,-94.2433,2.0,244.1146947,10.92619787,-99999.0,'11111222,11111222,99999999' 
TABS,ioos:station:wmo:42050:1,1999-04-03T14:00:00Z,28.8425,-94.2433,2.0,245.7313718,11.60557194,-99999.0,'11111222,11111222,99999999' 
TABS,ioos:station:wmo:42050:1,1999-04-03T14:30:00Z,28.8425,-94.2433,2.0,257.6855288,8.393098355,-99999.0,'11133222,11111222,99999999' 
TABS,ioos:station:wmo:42050:1,1999-04-03T15:00:00Z,28.8425,-94.2433,2.0,235.1961847,10.70496147,-99999.0,'11111222,11111222,99999999' 
TABS,ioos:station:wmo:42050:1,1999-04-03T15:30:00Z,28.8425,-94.2433,2.0,238.1403347,7.900189871,-99999.0,'11133222,11111222,99999999' 
TABS,ioos:station:wmo:42050:1,1999-04-03T16:00:00Z,28.8425,-94.2433,2.0,248.1893773,12.0312011,-99999.0,'11111222,11111222,99999999' 
TABS,ioos:station:wmo:42050:1,1999-04-03T16:30:00Z,28.8425,-94.2433,2.0,259.3126608,10.46145305,-99999.0,'11111222,11111222,99999999' 
TABS,ioos:station:wmo:42050:1,1999-04-03T17:00:00Z,28.8425,-94.2433,2.0,267.723124,11.32894082,-99999.0,'11111222,11111222,99999999' 
TABS,ioos:station:wmo:42050:1,1999-04-03T17:30:00Z,28.8425,-94.2433,2.0,273.2928026,10.44724366,-99999.0,'11111222,11111222,99999999' 
TABS,ioos:station:wmo:42050:1,1999-04-03T18:00:00Z,28.8425,-94.2433,2.0,276.0916519,8.387353575,-99999.0,'11133222,11111222,99999999' 
TABS,ioos:station:wmo:42050:1,1999-04-03T18:30:00Z,28.8425,-94.2433,2.0,300.6275706,4.671702045,-99999.0,'11133222,11111222,99999999' 
TABS,ioos:station:wmo:42050:1,1999-04-03T19:00:00Z,28.8425,-94.2433,2.0,275.9092822,7.188191706,-99999.0,'11133222,11111222,99999999' 
TABS,ioos:station:wmo:42050:1,1999-04-03T19:30:00Z,28.8425,-94.2433,2.0,287.4733014,5.462023435,-99999.0,'11133222,11111222,99999999' 
TABS,ioos:station:wmo:42050:1,1999-04-03T20:00:00Z,28.8425,-94.2433,2.0,266.321349,7.014449373,-99999.0,'11133222,11111222,99999999' 
TABS,ioos:station:wmo:42050:1,1999-04-03T20:30:00Z,28.8425,-94.2433,2.0,262.1876656,3.310724996,-99999.0,'11133222,11111222,99999999' 
TABS,ioos:station:wmo:42050:1,1999-04-03T21:00:00Z,28.8425,-94.2433,2.0,249.227373,5.893063719,-99999.0,'11133222,11111222,99999999' 
TABS,ioos:station:wmo:42050:1,1999-04-03T21:30:00Z,28.8425,-94.2433,2.0,232.6929605,7.870228713,-99999.0,'11133222,11111222,99999999' 
TABS,ioos:station:wmo:42050:1,1999-04-03T22:00:00Z,28.8425,-94.2433,2.0,221.8832163,7.80385802,-99999.0,'11133222,11111222,99999999' 
TABS,ioos:station:wmo:42050:1,1999-04-03T22:30:00Z,28.8425,-94.2433,2.0,221.6111352,10.76684726,-99999.0,'11111222,11111222,99999999' 
TABS,ioos:station:wmo:42050:1,1999-04-03T23:00:00Z,28.8425,-94.2433,2.0,228.322797,10.97861558,-99999.0,'11111222,11111222,99999999' 
TABS,ioos:station:wmo:42050:1,1999-04-03T23:30:00Z,28.8425,-94.2433,2.0,227.9912269,10.02629543,-99999.0,'11111222,11111222,99999999' 
TABS,ioos:station:wmo:42050:1,1999-04-04T00:00:00Z,28.8425,-94.2433,2.0,205.3372026,9.393641466,-99999.0,'11133222,11111222,99999999' 
TABS,ioos:station:wmo:42050:1,1999-04-04T00:30:00Z,28.8425,-94.2433,2.0,199.7409799,12.34557816,-99999.0,'11111222,11111222,99999999' 
TABS,ioos:station:wmo:42050:1,1999-04-04T01:00:00Z,28.8425,-94.2433,2.0,197.3156834,21.53605581,-99999.0,'11111222,11111222,99999999' 
TABS,ioos:station:wmo:42050:1,1999-04-04T01:30:00Z,28.8425,-94.2433,2.0,197.96571,23.18027178,-99999.0,'11111222,11111222,99999999' 
TABS,ioos:station:wmo:42050:1,1999-04-04T02:00:00Z,28.8425,-94.2433,2.0,195.2932623,24.87073984,-99999.0,'11111222,11111222,99999999' 
TABS,ioos:station:wmo:42050:1,1999-04-04T02:30:00Z,28.8425,-94.2433,2.0,201.2119898,26.36641804,-99999.0,'11111222,11111222,99999999' 
TABS,ioos:station:wmo:42050:1,1999-04-04T03:00:00Z,28.8425,-94.2433,2.0,203.0319103,21.69979263,-99999.0,'11111222,11111222,99999999' 
TABS,ioos:station:wmo:42050:1,1999-04-04T03:30:00Z,28.8425,-94.2433,2.0,209.6585192,22.29030731,-99999.0,'11111222,11111222,99999999' 
TABS,ioos:station:wmo:42050:1,1999-04-04T04:00:00Z,28.8425,-94.2433,2.0,212.7771815,20.37394905,-99999.0,'11111222,11111222,99999999' 
TABS,ioos:station:wmo:42050:1,1999-04-04T04:30:00Z,28.8425,-94.2433,2.0,224.304945,17.49510789,-99999.0,'11111222,11111222,99999999' 
TABS,ioos:station:wmo:42050:1,1999-04-04T05:00:00Z,28.8425,-94.2433,2.0,226.2094079,15.0718048,-99999.0,'11111222,11111222,99999999' 
TABS,ioos:station:wmo:42050:1,1999-04-04T05:30:00Z,28.8425,-94.2433,2.0,212.3320994,13.92965901,-99999.0,'11111222,11111222,99999999' 
TABS,ioos:station:wmo:42050:1,1999-04-04T06:00:00Z,28.8425,-94.2433,2.0,219.2395447,17.89530665,-99999.0,'11111222,11111222,99999999' 
TABS,ioos:station:wmo:42050:1,1999-04-04T06:30:00Z,28.8425,-94.2433,2.0,227.7949982,15.07931696,-99999.0,'11111222,11111222,99999999' 
TABS,ioos:station:wmo:42050:1,1999-04-04T07:00:00Z,28.8425,-94.2433,2.0,241.9165095,12.66058845,-99999.0,'11111222,11111222,99999999' 
TABS,ioos:station:wmo:42050:1,1999-04-04T07:30:00Z,28.8425,-94.2433,2.0,248.6767546,13.11797622,-99999.0,'11111222,11111222,99999999' 
TABS,ioos:station:wmo:42050:1,1999-04-04T08:00:00Z,28.8425,-94.2433,2.0,253.8064188,13.33920912,-99999.0,'11111222,11111222,99999999' 
TABS,ioos:station:wmo:42050:1,1999-04-04T08:30:00Z,28.8425,-94.2433,2.0,258.6983766,12.91032533,-99999.0,'11111222,11111222,99999999' 
TABS,ioos:station:wmo:42050:1,1999-04-04T09:00:00Z,28.8425,-94.2433,2.0,282.0371973,20.71545317,-99999.0,'11111222,11111222,99999999' 
TABS,ioos:station:wmo:42050:1,1999-04-04T09:30:00Z,28.8425,-94.2433,2.0,283.8325745,21.79196412,-99999.0,'11111222,11111222,99999999' 
TABS,ioos:station:wmo:42050:1,1999-04-04T10:00:00Z,28.8425,-94.2433,2.0,286.3259587,21.73641415,-99999.0,'11111222,11111222,99999999' 
TABS,ioos:station:wmo:42050:1,1999-04-04T10:30:00Z,28.8425,-94.2433,2.0,290.7297513,18.95724136,-99999.0,'11111222,11111222,99999999' 
TABS,ioos:station:wmo:42050:1,1999-04-04T11:00:00Z,28.8425,-94.2433,2.0,283.2932239,19.44086675,-99999.0,'11111222,11111222,99999999' 
TABS,ioos:station:wmo:42050:1,1999-04-04T11:30:00Z,28.8425,-94.2433,2.0,279.1892355,15.84331089,-99999.0,'11111222,11111222,99999999' 
TABS,ioos:station:wmo:42050:1,1999-04-04T12:00:00Z,28.8425,-94.2433,2.0,284.5122035,17.2400261,-99999.0,'11111222,11111222,99999999' 
TABS,ioos:station:wmo:42050:1,1999-04-04T12:30:00Z,28.8425,-94.2433,2.0,277.3337517,16.37393355,-99999.0,'11111222,11111222,99999999' 
TABS,ioos:station:wmo:42050:1,1999-04-04T13:00:00Z,28.8425,-94.2433,2.0,277.0048078,15.90873031,-99999.0,'11111222,11111222,99999999' 
TABS,ioos:station:wmo:42050:1,1999-04-04T13:30:00Z,28.8425,-94.2433,2.0,273.7333654,15.9738912,-99999.0,'11111222,11111222,99999999' 
TABS,ioos:station:wmo:42050:1,1999-04-04T14:00:00Z,28.8425,-94.2433,2.0,278.4144644,16.26506994,-99999.0,'11111222,11111222,99999999' 
TABS,ioos:station:wmo:42050:1,1999-04-04T14:30:00Z,28.8425,-94.2433,2.0,273.4106006,20.00542426,-99999.0,'11111222,11111222,99999999' 
TABS,ioos:station:wmo:42050:1,1999-04-04T15:00:00Z,28.8425,-94.2433,2.0,273.0737462,19.39789937,-99999.0,'11111222,11111222,99999999' 
TABS,ioos:station:wmo:42050:1,1999-04-04T15:30:00Z,28.8425,-94.2433,2.0,274.1155683,16.58275309,-99999.0,'11111222,11111222,99999999' 
TABS,ioos:station:wmo:42050:1,1999-04-04T16:00:00Z,28.8425,-94.2433,2.0,271.5311161,16.8460114,-99999.0,'11111222,11111222,99999999' 